DECAYED

STARLINK-1761, 47626 (Decayed)

Orbit data source: Space-Track

STARLINK-1761, 47626 was a payload satellite owned by SpaceX/Seattle (US) in LEO that was launched on Tue, 16 Feb 2021 UTC via an FALCON 9 launch vehicle from the Air Force Eastern Test Range (AFETR). Payload-class satellites include a variety of spacecraft equipped with specific instruments for various scientific and technological missions. These include communications satellites like Starlink; space stations such as the ISS; scientific satellites like the Hubble; Earth observation satellites from companies like Planet Labs, Umbra, and HawkEye 360; GPS; miniature CubeSats for education and research; and military/defense satellites.

Not visible in the next 10 days
Identifier
47626, 2021-012G
Orbit
Decayed
Country
Flag of USUS
Related business
Manufacturer
SpaceX/Seattle
Mission
Decayed Commercial Communications
Bus & Motor
STARLINK, Unknown motor
Mass
260 kg wet, ~248 kg dry
Launch date (UTC)
2021-02-16 (5 years ago)
Launch vehicle
FALCON 9
Launch site
Air Force Eastern Test Range (AFETR)
Object type
Payload
Rocket body
Debris
Shape & HBR
Box + 1 Pan, 10.1 m
Radar Cross Section
13.562 m², Large (>1 m²)

Expand to show TLE details & history
Last TLE update: 1 year ago

TLE from 1 year ago
0 STARLINK-1761
1 47626U 21012G   25187.56021647  .16370005  12337-4  25114-3 0  9993
2 47626  53.0305  51.8524 0014622 203.6722 246.2739 16.47248742242999
Epoch: 2025-07-06T13:26Z
TLE epoch observation values (Epoch: 2025-07-06T13:26:42.703Z)
Latitude
53.18899°
Longitude
15.04736°
Altitude
156.914 km
Speed
7.816 km/s
True Right ascension
09h 26m 01s
True Declination
53° 00' 31"
Sunlit
Object was in daylight at epoch
Visualization orbit readout
Latitude
Unknown
Longitude
Unknown
Altitude
Unknown
Speed
Unknown
Apparent Right ascension
Unknown
Apparent Declination
Unknown
Sunlit
N/A
Visualization observer readout
Local Sidereal Time
00:38:48
Azimuth
Unknown
Elevation
Unknown
Doppler factor
Unknown
Orbital elements
Apogee altitude
156.422 km
Perigee altitude
137.341 km
Semi-major axis
6,525.019 km
Eccentricity
0.00146
Inclination
53.0305°
RAAN
51.8524°
Arg. of periapsis
203.6722°
True anomaly
246.12062°
Mean anomaly
246.2739°
Eccentric anomaly
246.19725°
Mean motion
4.11785 °/min
Orbital period
87.42 mins
BSTAR
0.00025114
Loading maneuver chart data...
Computing Atmospheric mass density...

Documentation

Showing up to 5 results
|